Stations météo

Publicité
Achnagart, Grande-Bretagne (99191): Température de l'air & dewpoint: 16.08.2018 00:00:00 - 22.08.2018 00:00:00 (BST)Achnagart, Grande-Bretagne (99191): Quantités de précipitations: 16.08.2018 00:00:00 - 22.08.2018 00:00:00 (BST)
Date & Time tt [°C] td [°C] rr [mm]
22.08.2018 00:00:00 - - -
21.08.2018 23:00:00 - - -
21.08.2018 22:00:00 - - -
21.08.2018 21:00:00 - - -
21.08.2018 20:00:00 17,2 15,1 0,8
21.08.2018 19:00:00 17,5 14,2 0,0
21.08.2018 18:00:00 18,6 13,8 0,0
21.08.2018 17:00:00 18,4 14,0 0,0
21.08.2018 16:00:00 18,3 13,9 0,0
21.08.2018 15:00:00 18,8 13,1 0,0
21.08.2018 14:00:00 18,7 13,6 0,0
21.08.2018 13:00:00 18,1 13,4 0,0
21.08.2018 12:00:00 16,8 13,0 0,0
21.08.2018 11:00:00 16,2 12,9 0,0
21.08.2018 10:00:00 16,3 13,0 0,0
21.08.2018 09:00:00 15,7 12,5 0,0
21.08.2018 08:00:00 10,8 10,8 0,0
21.08.2018 07:00:00 9,4 9,4 0,0
21.08.2018 06:00:00 8,2 8,2 0,0
21.08.2018 05:00:00 6,8 6,7 0,0
21.08.2018 04:00:00 5,9 5,7 0,0
21.08.2018 03:00:00 6,8 6,6 0,0
21.08.2018 02:00:00 7,0 6,7 0,0
21.08.2018 01:00:00 8,1 8,0 0,0
21.08.2018 00:00:00 8,0 7,7 0,0
20.08.2018 23:00:00 - - -
20.08.2018 22:00:00 - - 0,0
20.08.2018 21:00:00 - - 0,0
20.08.2018 20:00:00 12,1 9,7 0,0
20.08.2018 19:00:00 13,8 9,6 0,0
20.08.2018 18:00:00 14,7 9,6 0,0
20.08.2018 17:00:00 15,9 9,5 0,0
20.08.2018 16:00:00 16,3 8,8 0,0
20.08.2018 15:00:00 - - 0,0
20.08.2018 14:00:00 - - 0,0
20.08.2018 13:00:00 16,0 10,0 0,0
20.08.2018 12:00:00 14,9 9,3 0,0
20.08.2018 11:00:00 16,3 10,9 0,0
20.08.2018 10:00:00 13,4 11,4 0,0
20.08.2018 09:00:00 11,7 11,2 0,0
20.08.2018 08:00:00 10,7 10,6 0,0
20.08.2018 07:00:00 9,9 9,7 0,0
20.08.2018 06:00:00 9,9 9,7 0,0
20.08.2018 05:00:00 9,7 9,5 0,0
20.08.2018 04:00:00 9,7 9,4 0,0
20.08.2018 03:00:00 10,0 9,8 0,0
20.08.2018 02:00:00 9,6 9,3 0,0
20.08.2018 01:00:00 9,5 9,3 0,0
20.08.2018 00:00:00 8,6 8,1 0,0
19.08.2018 23:00:00 9,9 8,2 0,0
19.08.2018 22:00:00 12,1 10,5 0,0
19.08.2018 21:00:00 11,8 9,6 0,0
19.08.2018 20:00:00 14,1 10,2 0,0
19.08.2018 19:00:00 15,2 10,6 0,0
19.08.2018 18:00:00 16,5 10,5 0,0
19.08.2018 17:00:00 17,5 10,3 0,0
19.08.2018 16:00:00 16,9 11,2 0,0
19.08.2018 15:00:00 17,6 11,1 0,0
19.08.2018 14:00:00 17,6 10,4 0,0
19.08.2018 13:00:00 17,4 10,1 0,0
19.08.2018 12:00:00 16,4 11,0 0,0
19.08.2018 11:00:00 15,1 10,3 0,0
19.08.2018 10:00:00 14,1 10,3 0,0
19.08.2018 09:00:00 12,7 11,5 0,0
19.08.2018 08:00:00 10,9 10,6 0,0
19.08.2018 07:00:00 10,5 10,2 0,0
19.08.2018 06:00:00 10,5 10,2 0,0
19.08.2018 05:00:00 10,5 10,1 0,0
19.08.2018 04:00:00 10,6 10,1 0,0
19.08.2018 03:00:00 10,8 10,1 0,0
19.08.2018 02:00:00 11,0 10,3 0,0
19.08.2018 01:00:00 10,8 10,1 0,0
19.08.2018 00:00:00 10,7 10,0 0,0
18.08.2018 23:00:00 9,9 8,6 0,0
18.08.2018 22:00:00 11,5 9,7 0,0
18.08.2018 21:00:00 13,0 8,9 0,0
18.08.2018 20:00:00 14,1 8,5 0,0
18.08.2018 19:00:00 14,7 7,8 0,0
18.08.2018 18:00:00 15,0 8,4 0,0
18.08.2018 17:00:00 15,1 8,8 0,0
18.08.2018 16:00:00 15,1 9,3 0,0
18.08.2018 15:00:00 15,4 9,0 0,0
18.08.2018 14:00:00 16,0 9,4 0,0
18.08.2018 13:00:00 15,1 10,1 0,0
18.08.2018 12:00:00 14,5 8,4 0,0
18.08.2018 11:00:00 15,1 8,6 0,0
18.08.2018 10:00:00 14,7 9,1 0,0
18.08.2018 09:00:00 14,8 8,5 0,0
18.08.2018 08:00:00 14,4 9,4 0,0
18.08.2018 07:00:00 14,0 9,5 1,0
18.08.2018 06:00:00 13,3 10,9 1,4
18.08.2018 05:00:00 14,1 9,7 0,2
18.08.2018 04:00:00 14,1 9,9 0,2
18.08.2018 03:00:00 14,7 9,4 0,0
18.08.2018 02:00:00 14,9 9,7 0,0
18.08.2018 01:00:00 15,0 8,7 0,0
18.08.2018 00:00:00 14,3 9,9 0,0
17.08.2018 23:00:00 14,1 9,9 0,0
17.08.2018 22:00:00 15,0 9,5 0,0
17.08.2018 21:00:00 15,0 10,5 0,0
17.08.2018 20:00:00 15,0 10,2 0,0
17.08.2018 19:00:00 14,5 11,4 0,2
17.08.2018 18:00:00 15,6 12,8 0,2
17.08.2018 17:00:00 15,2 13,3 1,0
17.08.2018 16:00:00 15,2 13,2 1,2
17.08.2018 15:00:00 14,9 12,8 1,0
17.08.2018 14:00:00 13,1 12,3 1,2
17.08.2018 13:00:00 13,6 12,0 0,8
17.08.2018 12:00:00 13,5 11,5 0,8
17.08.2018 11:00:00 13,6 11,2 0,6
17.08.2018 10:00:00 13,2 10,5 0,4
17.08.2018 09:00:00 12,2 10,5 0,6
17.08.2018 08:00:00 12,3 9,5 0,2
17.08.2018 07:00:00 11,6 9,3 0,0
17.08.2018 06:00:00 12,0 8,7 0,0
17.08.2018 05:00:00 12,3 9,0 0,2
17.08.2018 04:00:00 11,8 9,3 0,2
17.08.2018 03:00:00 12,2 9,8 2,0
17.08.2018 02:00:00 12,4 9,9 0,2
17.08.2018 01:00:00 12,3 10,0 3,2
17.08.2018 00:00:00 12,3 9,3 0,4
16.08.2018 23:00:00 12,8 9,1 0,2
16.08.2018 22:00:00 12,8 9,1 0,4
16.08.2018 21:00:00 11,6 10,0 0,2
16.08.2018 20:00:00 12,2 9,6 0,6
16.08.2018 19:00:00 12,5 10,0 -
16.08.2018 18:00:00 13,9 10,0 0,2
16.08.2018 17:00:00 12,9 10,7 1,2
16.08.2018 16:00:00 14,9 11,1 0,6
16.08.2018 15:00:00 - - 0,2
16.08.2018 14:00:00 - - 0,2
16.08.2018 13:00:00 - - 1,2
16.08.2018 12:00:00 - - 0,6
16.08.2018 11:00:00 - - 2,6
16.08.2018 10:00:00 - - 3,8
16.08.2018 09:00:00 - - 0,8
16.08.2018 08:00:00 - - 0,6
16.08.2018 07:00:00 - - 2,0
16.08.2018 06:00:00 - - 1,8
16.08.2018 05:00:00 - - 0,0
16.08.2018 04:00:00 - - 0,2
16.08.2018 03:00:00 - - 0,0
16.08.2018 02:00:00 - - 0,0
16.08.2018 01:00:00 12,6 8,5 0,0
16.08.2018 00:00:00 12,2 9,4 0,0

tt = Température de l'air
td = dewpoint
rr = Quantités de précipitations

stations d'obs. à proximité